When you browse on this site, cookies collect data to enhance your experience and personalize the content and advertising you see.
Visit our Privacy Policy to learn more. By continuing to use the site, you agree to this use of cookies and data.
  • Em Portugal
  • Lista de países
  • Para 7 dias
  • Temperatura da água
  • Mapas de satélite
  • Mapa do tempo
  • Widgets de tempo
  • user-avatar
    Iniciar Sessão

    Previsão horária em Dobropole

    Hoje, 17 Fevereiro, Domingo

    Tempo Temperatura Precipitação Vento Pressão Humidade
    00:00 -1°C° 0 mm 3 m/s 749 mmHg 93%
    01:00 -1°C° 0 mm 3 m/s 749 mmHg 93%
    02:00 -2°C° 0 mm 4 m/s 749 mmHg 94%
    03:00 -2°C° 0 mm 4 m/s 748 mmHg 94%
    04:00 -3°C° 0 mm 4 m/s 748 mmHg 95%
    05:00 -3°C° 0 mm 4 m/s 748 mmHg 95%
    06:00 -2°C° 0 mm 5 m/s 747 mmHg 94%
    07:00 -2°C° 0 mm 5 m/s 747 mmHg 93%
    08:00 -3°C° 0 mm 6 m/s 747 mmHg 91%
    09:00 -2°C° 0 mm 6 m/s 746 mmHg 89%
    10:00 -1°C° 0 mm 6 m/s 746 mmHg 87%
    11:00 0°C° 0 mm 7 m/s 746 mmHg 85%
    12:00 +3°C° 0 mm 7 m/s 745 mmHg 80%
    13:00 +4°C° 0 mm 7 m/s 744 mmHg 74%
    14:00 +5°C° 0 mm 7 m/s 744 mmHg 69%
    15:00 +4°C° 0 mm 7 m/s 744 mmHg 72%
    16:00 +3°C° 0 mm 7 m/s 743 mmHg 74%
    17:00 +2°C° 0 mm 7 m/s 743 mmHg 77%
    18:00 0°C° 0 mm 7 m/s 743 mmHg 81%
    19:00 -1°C° 0 mm 7 m/s 743 mmHg 85%
    20:00 -1°C° 0 mm 7 m/s 743 mmHg 88%
    21:00 -1°C° 0 mm 7 m/s 743 mmHg 88%
    22:00 -1°C° 0 mm 7 m/s 743 mmHg 88%
    23:00 -1°C° 0 mm 6 m/s 743 mmHg 88%

    Amanhã, 18 Fevereiro, Segunda-feira

    Tempo Temperatura Precipitação Vento Pressão Humidade
    00:00 -1°C° 0 mm 7 m/s 744 mmHg 86%
    01:00 -2°C° 0 mm 7 m/s 744 mmHg 84%
    02:00 -2°C° 0 mm 7 m/s 744 mmHg 82%
    03:00 -2°C° 0 mm 7 m/s 744 mmHg 81%
    04:00 -2°C° 0 mm 7 m/s 745 mmHg 79%
    05:00 -3°C° 0 mm 7 m/s 745 mmHg 78%
    06:00 -3°C° 0 mm 6 m/s 745 mmHg 79%
    07:00 -4°C° 0 mm 6 m/s 746 mmHg 81%
    08:00 -4°C° 0 mm 6 m/s 746 mmHg 82%
    09:00 -4°C° 0 mm 6 m/s 747 mmHg 78%
    10:00 -3°C° 0 mm 6 m/s 747 mmHg 75%
    11:00 -3°C° 0 mm 6 m/s 747 mmHg 71%
    12:00 -3°C° 0 mm 6 m/s 747 mmHg 70%
    13:00 -3°C° 0 mm 6 m/s 748 mmHg 70%
    14:00 -3°C° 0 mm 6 m/s 748 mmHg 69%
    15:00 -3°C° 0 mm 6 m/s 748 mmHg 70%
    16:00 -4°C° 0 mm 6 m/s 749 mmHg 72%
    17:00 -4°C° 0 mm 6 m/s 749 mmHg 73%
    18:00 -5°C° 0 mm 6 m/s 749 mmHg 72%
    19:00 -5°C° 0 mm 6 m/s 750 mmHg 72%
    20:00 -5°C° 0 mm 6 m/s 751 mmHg 72%
    21:00 -6°C° 0 mm 5 m/s 751 mmHg 71%
    22:00 -6°C° 0 mm 5 m/s 752 mmHg 70%
    23:00 -6°C° 0 mm 5 m/s 752 mmHg 69%

    Depois de amanhã, 19 Fevereiro, Terça-feira

    Tempo Temperatura Precipitação Vento Pressão Humidade
    00:00 -5°C° 0 mm 4 m/s 752 mmHg 68%
    01:00 -5°C° 0 mm 4 m/s 753 mmHg 67%
    02:00 -5°C° 0 mm 4 m/s 753 mmHg 66%
    03:00 -6°C° 0 mm 3 m/s 753 mmHg 67%
    04:00 -6°C° 0 mm 3 m/s 753 mmHg 68%
    05:00 -6°C° 0 mm 3 m/s 754 mmHg 69%
    06:00 -6°C° 0 mm 3 m/s 754 mmHg 69%
    07:00 -6°C° 0 mm 3 m/s 754 mmHg 69%
    08:00 -6°C° 0 mm 3 m/s 755 mmHg 69%
    09:00 -6°C° 0 mm 3 m/s 755 mmHg 63%
    10:00 -4°C° 0 mm 2 m/s 755 mmHg 58%
    11:00 -3°C° 0 mm 2 m/s 756 mmHg 53%
    12:00 -3°C° 0 mm 2 m/s 756 mmHg 50%
    13:00 -2°C° 0 mm 2 m/s 755 mmHg 48%
    14:00 0°C° 0 mm 1 m/s 755 mmHg 46%
    15:00 0°C° 0 mm 1 m/s 755 mmHg 50%
    16:00 -1°C° 0 mm 1 m/s 755 mmHg 54%
    17:00 -1°C° 0 mm 1 m/s 755 mmHg 58%
    18:00 -2°C° 0 mm 1 m/s 755 mmHg 60%
    19:00 -4°C° 0 mm 2 m/s 755 mmHg 62%
    20:00 -4°C° 0 mm 2 m/s 755 mmHg 64%
    21:00 -4°C° 0 mm 2 m/s 755 mmHg 65%
    22:00 -4°C° 0 mm 2 m/s 755 mmHg 66%
    23:00 -5°C° 0 mm 3 m/s 755 mmHg 67%

    20 Fevereiro, Quarta-feira

    Tempo Temperatura Precipitação Vento Pressão Humidade
    00:00 -5°C° 0 mm 3 m/s 754 mmHg 67%
    01:00 -5°C° 0 mm 3 m/s 754 mmHg 68%
    02:00 -5°C° 0 mm 3 m/s 754 mmHg 68%
    03:00 -5°C° 0 mm 3 m/s 754 mmHg 69%
    04:00 -5°C° 0 mm 3 m/s 753 mmHg 70%
    05:00 -5°C° 0 mm 3 m/s 753 mmHg 70%
    06:00 -5°C° 0 mm 4 m/s 753 mmHg 67%
    07:00 -5°C° 0 mm 4 m/s 752 mmHg 64%
    08:00 -4°C° 0 mm 4 m/s 752 mmHg 62%
    09:00 -4°C° 0 mm 5 m/s 752 mmHg 58%
    10:00 -2°C° 0 mm 5 m/s 751 mmHg 55%
    11:00 -1°C° 0 mm 5 m/s 751 mmHg 51%
    12:00 0°C° 0 mm 5 m/s 751 mmHg 50%
    13:00 +1°C° 0 mm 6 m/s 750 mmHg 49%
    14:00 +2°C° 0 mm 6 m/s 749 mmHg 48%
    15:00 +1°C° 0 mm 5 m/s 749 mmHg 57%
    16:00 0°C° 0 mm 4 m/s 749 mmHg 65%
    17:00 -1°C° 0 mm 4 m/s 748 mmHg 74%
    18:00 -1°C° 0.1 mm 4 m/s 748 mmHg 79%
    19:00 0°C° 0.1 mm 5 m/s 748 mmHg 83%
    20:00 0°C° 0.1 mm 5 m/s 748 mmHg 88%
    21:00 0°C° 0.1 mm 5 m/s 748 mmHg 90%
    22:00 0°C° 0.1 mm 5 m/s 747 mmHg 92%
    23:00 0°C° 0.1 mm 5 m/s 747 mmHg 94%

    21 Fevereiro, Quinta-feira

    Tempo Temperatura Precipitação Vento Pressão Humidade
    00:00 0°C° 0.2 mm 5 m/s 747 mmHg 95%
    01:00 0°C° 0.2 mm 5 m/s 747 mmHg 95%
    02:00 0°C° 0.2 mm 4 m/s 746 mmHg 96%
    03:00 0°C° 0 mm 5 m/s 746 mmHg 94%
    04:00 -1°C° 0 mm 5 m/s 746 mmHg 93%
    05:00 -1°C° 0 mm 5 m/s 746 mmHg 92%
    06:00 -1°C° 0 mm 5 m/s 746 mmHg 91%
    07:00 -1°C° 0 mm 5 m/s 746 mmHg 89%
    08:00 -2°C° 0 mm 6 m/s 746 mmHg 88%
    09:00 -1°C° 0 mm 6 m/s 746 mmHg 85%
    10:00 -1°C° 0 mm 6 m/s 746 mmHg 82%
    11:00 +1°C° 0 mm 6 m/s 746 mmHg 79%
    12:00 0°C° 0.1 mm 7 m/s 745 mmHg 76%
    13:00 0°C° 0.1 mm 7 m/s 745 mmHg 73%
    14:00 +1°C° 0.1 mm 8 m/s 745 mmHg 70%
    15:00 0°C° 0.1 mm 7 m/s 745 mmHg 72%
    16:00 -1°C° 0.1 mm 7 m/s 745 mmHg 74%
    17:00 -1°C° 0.1 mm 7 m/s 745 mmHg 76%
    18:00 -2°C° 0 mm 7 m/s 745 mmHg 74%
    19:00 -3°C° 0 mm 7 m/s 745 mmHg 73%
    20:00 -3°C° 0 mm 7 m/s 746 mmHg 71%
    21:00 -4°C° 0.1 mm 7 m/s 746 mmHg 71%
    22:00 -6°C° 0.1 mm 7 m/s 747 mmHg 70%
    23:00 -7°C° 0.1 mm 7 m/s 747 mmHg 70%

    22 Fevereiro, Sexta-feira

    Tempo Temperatura Precipitação Vento Pressão Humidade
    00:00 -6°C° 0 mm 6 m/s 748 mmHg 68%
    01:00 -7°C° 0 mm 5 m/s 748 mmHg 66%
    02:00 -8°C° 0 mm 4 m/s 749 mmHg 64%
    03:00 -8°C° 0 mm 4 m/s 749 mmHg 65%
    04:00 -8°C° 0 mm 4 m/s 749 mmHg 66%
    05:00 -8°C° 0 mm 4 m/s 749 mmHg 67%
    06:00 -8°C° 0 mm 4 m/s 750 mmHg 66%
    07:00 -8°C° 0 mm 4 m/s 750 mmHg 65%
    08:00 -7°C° 0 mm 4 m/s 750 mmHg 64%
    09:00 -7°C° 0 mm 4 m/s 751 mmHg 60%
    10:00 -5°C° 0 mm 4 m/s 751 mmHg 56%
    11:00 -4°C° 0 mm 4 m/s 751 mmHg 51%
    12:00 -4°C° 0 mm 4 m/s 750 mmHg 52%
    13:00 -4°C° 0 mm 4 m/s 750 mmHg 52%
    14:00 -3°C° 0 mm 4 m/s 750 mmHg 52%
    15:00 -4°C° 0 mm 4 m/s 750 mmHg 56%
    16:00 -5°C° 0 mm 4 m/s 750 mmHg 60%
    17:00 -5°C° 0 mm 4 m/s 750 mmHg 64%
    18:00 -6°C° 0 mm 3 m/s 750 mmHg 66%
    19:00 -6°C° 0 mm 3 m/s 751 mmHg 67%
    20:00 -6°C° 0 mm 3 m/s 751 mmHg 68%
    21:00 -7°C° 0 mm 4 m/s 751 mmHg 68%
    22:00 -7°C° 0 mm 4 m/s 752 mmHg 68%
    23:00 -8°C° 0 mm 4 m/s 752 mmHg 68%
    Mostrar mais